Weather History for Rome, NY

Change the Weather History Date:

Wednesday, July 18, 2012

  Actual Average Record
Temperature  
Mean Temperature 74 °F -  
Max Temperature 84 °F 86 °F 93 °F (1982)
Min Temperature 64 °F 60 °F 50 °F (1993)
Cooling Degree Days 9    
Growing Degree Days 24 (Base 50)    
Moisture  
Dew Point 65 °F    
Average Humidity 71    
Maximum Humidity 91    
Minimum Humidity 41    
Precipitation  
Precipitation 0.00 in - - ()
Sea Level Pressure  
Sea Level Pressure 29.85 in    
Wind  
Wind Speed 3 mph (NNW)    
Max Wind Speed 12 mph    
Max Gust Speed -    
Visibility 10 miles    
Events Rain , Thunderstorm    
Averages and records for this station are not official NWS values.
T = Trace of Precipitation, MM = Missing Value Source: NWS Daily Summary

Daily Weather History Graph

Daily Weather History Graph

Search for Another Location

Airport:

Trip Planner

Search our weather history database for the weather conditions in past years. The results will help you decide how hot, cold, wet, or windy it might be!

Date:

Astronomy

Jul. 18, 2012 Rise Set
Actual Time 5:38 AM EDT 8:36 PM EDT
Civil Twilight 5:04 AM EDT 9:10 PM EDT
Nautical Twilight 4:21 AM EDT 9:53 PM EDT
Astronomical Twilight 3:30 AM EDT 10:44 PM EDT
Moon 5:11 AM EDT (7/18) 8:03 PM EDT (7/18)
Length of Visible Light 16h 06m
Length of Day
14h 58m
Waning Crescent, 0% of the Moon is Illuminated
Jul 18
Waning Crescent
Jul 19
New
Jul 26
First Quarter
Aug 1
Full
Aug 9
Last Quarter

Hourly Weather History & Observations

Time (EDT) Temp. Heat Index Dew Point Humidity Pressure Visibility Wind Dir Wind Speed Gust Speed Precip Events Conditions
12:44 AM 77.0 °F - 73.0 °F 88% 29.80 in 10.0 mi WNW 3.5 mph - 0.00 in Rain , Thunderstorm Light Rain
12:53 AM 75.9 °F - 73.0 °F 91% 29.78 in 10.0 mi WNW 3.5 mph - 0.00 in   Mostly Cloudy
1:53 AM 75.0 °F - 72.0 °F 90% 29.75 in 9.0 mi SSE 3.5 mph - N/A   Partly Cloudy
2:37 AM 73.9 °F - 71.1 °F 91% 29.78 in 8.0 mi Calm Calm - N/A   Mostly Cloudy
3:53 AM 73.9 °F - 71.1 °F 91% 29.75 in 9.0 mi NNE 4.6 mph - N/A   Overcast
4:53 AM 73.0 °F - 70.0 °F 90% 29.76 in 10.0 mi Calm Calm - N/A   Mostly Cloudy
5:10 AM 73.0 °F - 70.0 °F 90% 29.78 in 10.0 mi Calm Calm - N/A   Scattered Clouds
5:50 AM 73.4 °F - 69.8 °F 88% 29.80 in 9.0 mi Calm Calm - N/A   Overcast
5:53 AM 73.0 °F - 70.0 °F 90% 29.79 in 10.0 mi Calm Calm - N/A   Overcast
6:53 AM 73.0 °F - 66.0 °F 79% 29.81 in 10.0 mi Calm Calm - N/A   Overcast
7:06 AM 73.0 °F - 66.0 °F 79% 29.83 in 10.0 mi Calm Calm - N/A   Overcast
7:16 AM 73.0 °F - 66.0 °F 79% 29.83 in 10.0 mi Calm Calm - N/A   Overcast
7:46 AM 73.9 °F - 64.9 °F 73% 29.84 in 10.0 mi Variable 3.5 mph - N/A   Overcast
7:53 AM 73.9 °F - 64.9 °F 73% 29.83 in 10.0 mi NNE 4.6 mph - N/A   Overcast
8:53 AM 75.0 °F - 64.0 °F 69% 29.86 in 10.0 mi North 3.5 mph - N/A   Overcast
9:53 AM 75.9 °F - 64.0 °F 67% 29.87 in 10.0 mi NE 5.8 mph - N/A   Overcast
10:53 AM 78.1 °F - 64.0 °F 62% 29.88 in 10.0 mi NNW 5.8 mph - N/A   Overcast
11:53 AM 81.0 °F 82.5 °F 64.0 °F 56% 29.89 in 10.0 mi Variable 3.5 mph - N/A   Mostly Cloudy
12:53 PM 80.1 °F 81.5 °F 63.0 °F 56% 29.90 in 10.0 mi North 8.1 mph - N/A   Overcast
1:53 PM 82.9 °F 83.7 °F 62.1 °F 49% 29.89 in 10.0 mi NNW 5.8 mph - N/A   Mostly Cloudy
3:53 PM 82.9 °F 82.8 °F 59.0 °F 44% 29.86 in 10.0 mi NNW 11.5 mph - N/A   Overcast
4:53 PM 82.9 °F 82.4 °F 57.0 °F 41% 29.86 in 10.0 mi NW 4.6 mph - N/A   Partly Cloudy
5:53 PM 81.0 °F 81.7 °F 61.0 °F 50% 29.88 in 10.0 mi Calm Calm - N/A   Clear
6:53 PM 82.0 °F 81.7 °F 57.0 °F 42% 29.88 in 10.0 mi WNW 10.4 mph - N/A   Clear
7:53 PM 78.1 °F - 60.1 °F 54% 29.89 in 10.0 mi NW 6.9 mph - N/A   Partly Cloudy
8:53 PM 73.9 °F - 60.1 °F 62% 29.90 in 10.0 mi Calm Calm - N/A   Clear
9:53 PM 69.1 °F - 59.0 °F 70% 29.94 in 10.0 mi NW 3.5 mph - N/A   Clear
10:53 PM 66.0 °F - 57.9 °F 75% 29.95 in 10.0 mi NNE 6.9 mph - N/A   Clear
11:53 PM 64.9 °F - 57.0 °F 75% 29.95 in 10.0 mi NNE 6.9 mph - N/A   Clear